WetterOnline ( https://www.wetteronline.at )

Wetter aktuell München

Aktuelles Wetter: München/Stadt (535m)

6-stündlich | Neueste Meldungen
Ortszeit Temperatur Wetter
Fr, 23.08. 8:00 14.4° C leicht bewölkt
Fr, 23.08. 2:00 12.6° C wolkenlos
Do, 22.08. 20:00 19.0° C wolkig
Do, 22.08. 14:00 18.0° C bedeckt
Do, 22.08. 8:00 13.4° C bedeckt
Do, 22.08. 2:00 14.5° C bedeckt
Mi, 21.08. 20:00 17.5° C bedeckt
Mi, 21.08. 14:00 18.4° C wolkig
Ortszeit Temperatur Wetter
Fr, 23.08. 8:00 14.4° C leicht bewölkt
Fr, 23.08. 7:50 14.4° C leicht bewölkt
Fr, 23.08. 7:40 14.0° C leicht bewölkt
Fr, 23.08. 7:30 13.6° C bewölkt
Fr, 23.08. 7:20 13.6° C bewölkt
Fr, 23.08. 7:10 13.5° C bewölkt
Fr, 23.08. 7:00 13.0° C bewölkt
Fr, 23.08. 6:30 12.6° C bewölkt
Fr, 23.08. 6:00 12.2° C bewölkt
Fr, 23.08. 5:30 11.8° C wolkig
Fr, 23.08. 5:00 11.6° C wolkenlos
Ortszeit Relative Feuchte Sichtweite
Fr, 23.08. 8:00 93% 20 km
Fr, 23.08. 2:00 94% 25 km
Do, 22.08. 20:00 67% 50 km
Do, 22.08. 14:00 65% 55 km
Do, 22.08. 8:00 87% 40 km
Do, 22.08. 2:00 78% 65 km
Mi, 21.08. 20:00 72% 50 km
Mi, 21.08. 14:00 58% 50 km
Ortszeit Relative Feuchte Sichtweite
Fr, 23.08. 8:00 93% 20 km
Fr, 23.08. 7:50 93% -
Fr, 23.08. 7:40 92% -
Fr, 23.08. 7:30 94% 27 km
Fr, 23.08. 7:20 94% -
Fr, 23.08. 7:10 94% -
Fr, 23.08. 7:00 94% 28 km
Fr, 23.08. 6:30 96% 23 km
Fr, 23.08. 6:00 95% 21 km
Fr, 23.08. 5:30 96% 20 km
Fr, 23.08. 5:00 95% 16 km
Ortszeit Niederschlagsmenge Niederschlagsart
Fr, 23.08. 8:00 0.0 l/m2 in 12 Std. -
Fr, 23.08. 2:00 0.0 l/m2 in 6 Std. -
Do, 22.08. 20:00 0.0 l/m2 in 12 Std. -
Do, 22.08. 14:00 0.0 l/m2 in 6 Std. -
Do, 22.08. 8:00 0.0 l/m2 in 12 Std. -
Do, 22.08. 2:00 0.0 l/m2 in 6 Std. -
Mi, 21.08. 20:00 0.0 l/m2 in 12 Std. -
Mi, 21.08. 14:00 0.0 l/m2 in 6 Std. -
Ortszeit Niederschlagsmenge Niederschlagsart
Fr, 23.08. 8:00 0.0 l/m2 in 1 Std. -
Fr, 23.08. 7:50 keine Meldung -
Fr, 23.08. 7:40 keine Meldung -
Fr, 23.08. 7:30 0.0 l/m2 in 1 Std. -
Fr, 23.08. 7:20 keine Meldung -
Fr, 23.08. 7:10 keine Meldung -
Fr, 23.08. 7:00 0.0 l/m2 in 1 Std. -
Fr, 23.08. 6:30 0.0 l/m2 in 1 Std. -
Fr, 23.08. 6:00 0.0 l/m2 in 1 Std. -
Fr, 23.08. 5:30 0.0 l/m2 in 1 Std. -
Fr, 23.08. 5:00 0.0 l/m2 in 1 Std. -
Ortszeit Stärke Spitze Richtung
km/h Bft. km/h Grad Sektor
Fr, 23.08. 8:00 2 1 6 100° O
Fr, 23.08. 2:00 4 1 14 270° W
Do, 22.08. 20:00 4 1 29 160° S
Do, 22.08. 14:00 11 2 29 90° O
Do, 22.08. 8:00 9 2 28 50° NO
Do, 22.08. 2:00 11 2 22 80° O
Mi, 21.08. 20:00 9 2 22 80° O
Mi, 21.08. 14:00 11 2 25 70° O
Ortszeit Stärke Spitze Richtung
km/h Bft. km/h Grad Sektor
Fr, 23.08. 8:00 2 1 4 100° O
Fr, 23.08. 7:50 2 1 - 100° O
Fr, 23.08. 7:40 2 1 - 100° O
Fr, 23.08. 7:30 4 1 4 360° N
Fr, 23.08. 7:20 4 1 - 360° N
Fr, 23.08. 7:10 2 1 - 30° NO
Fr, 23.08. 7:00 2 1 4 210° SW
Fr, 23.08. 6:30 2 1 2 290° W
Fr, 23.08. 6:00 0 0 4 - -
Fr, 23.08. 5:30 4 1 4 240° SW
Fr, 23.08. 5:00 4 1 7 270° W
Ortszeit Untergrenze Bedeckung Gattung
total tief tief mittel hoch
Fr, 23.08. 8:00 1140 m 4/8 4/8 - - -
Fr, 23.08. 2:00 - 0/8 0/8 - - -
Do, 22.08. 20:00 1110 m 5/8 5/8 - - -
Do, 22.08. 14:00 690 m 8/8 8/8 - - -
Do, 22.08. 8:00 6300 m 8/8 8/8 - - -
Do, 22.08. 2:00 6000 m 8/8 8/8 - - -
Mi, 21.08. 20:00 1500 m 8/8 8/8 - - -
Mi, 21.08. 14:00 960 m 5/8 4/8 - - -
Ortszeit Bedeckungsgrad in Achtel und Wolkenuntergrenze
Fr, 23.08. 8:00 4(1140m)
Fr, 23.08. 7:50 4(1140m)
Fr, 23.08. 7:40 2(1170m)
Fr, 23.08. 7:30 1(870m) 7(1140m)
Fr, 23.08. 7:20 1(870m) 7(1140m)
Fr, 23.08. 7:10 1(870m) 7(1110m)
Fr, 23.08. 7:00 7(1140m) 7(1140m)
Fr, 23.08. 6:30 7(1110m)
Fr, 23.08. 6:00 7(1050m)
Fr, 23.08. 5:30 5(1020m)
Fr, 23.08. 5:00 keine Wolken
Ortszeit Luftdruck NN (hPa) Tendenz (hPa in 3 Std.)
Fr, 23.08. 8:00 1026 + 0,2
Fr, 23.08. 2:00 1026 - 0,4
Do, 22.08. 20:00 1025 + 0,3
Do, 22.08. 14:00 1025 0,0
Do, 22.08. 8:00 1026 + 0,5
Do, 22.08. 2:00 1026 - 1,1
Mi, 21.08. 20:00 1026 - 0,3
Mi, 21.08. 14:00 1027 - 1,1
Ortszeit Luftdruck NN (hPa) Tendenz (hPa in 3 Std.)
Fr, 23.08. 8:00 1026 + 0,2
Fr, 23.08. 7:50 1026 keine Meldung
Fr, 23.08. 7:40 1026 keine Meldung
Fr, 23.08. 7:30 1026 - 0,1
Fr, 23.08. 7:20 1026 keine Meldung
Fr, 23.08. 7:10 1026 keine Meldung
Fr, 23.08. 7:00 1026 - 0,1
Fr, 23.08. 6:30 1026 - 0,1
Fr, 23.08. 6:00 1026 - 0,4
Fr, 23.08. 5:30 1026 - 0,4
Fr, 23.08. 5:00 1026 - 0,3
Ortszeit Schneehöhe (cm)
Fr, 23.08. 8:00 -
Fr, 23.08. 2:00 0
Do, 22.08. 20:00 0
Do, 22.08. 14:00 0
Do, 22.08. 8:00 0
Do, 22.08. 2:00 0
Mi, 21.08. 20:00 0
Mi, 21.08. 14:00 0
Ortszeit Schneehöhe (cm)
Fr, 23.08. 8:00 -
Fr, 23.08. 7:50 0
Fr, 23.08. 7:40 0
Fr, 23.08. 7:30 0
Fr, 23.08. 7:20 0
Fr, 23.08. 7:10 0
Fr, 23.08. 7:00 0
Fr, 23.08. 6:30 0
Fr, 23.08. 6:00 0
Fr, 23.08. 5:30 0
Fr, 23.08. 5:00 0
Link zu dieser Seite / Seite empfehlen

Das Wetter in ...